GW3437 Weather Reports


Display with metric or nautical units.
time (UTC)temp
F
wind
direction
speed
MPH
gust
MPH
rain 1hr
in
rain 24hr
in
rain mn
in
humidity
%
barometer
mb
20260905081853 86 204 4.0 4.0 0.00 0.00 0.00 56 1014.8
20260905081348 86 175 5.0 7.0 0.00 0.00 0.00 56 1014.8
20260905080846 86 179 4.0 6.0 0.00 0.00 0.00 56 1014.6
20260905080341 86 144 1.0 6.0 0.00 0.00 0.00 56 1014.6
20260905075840 86 187 5.0 7.0 0.00 0.00 0.00 55 1014.7
20260905075339 87 157 2.0 4.0 0.00 0.00 0.00 55 1014.8
20260905074839 87 148 2.0 13.0 0.00 0.00 0.00 55 1014.6
20260905074335 87 173 4.0 6.0 0.00 0.00 0.00 55 1014.7
20260905073830 87 200 5.0 8.0 0.00 0.00 0.00 54 1014.8
20260905073326 87 193 3.0 7.0 0.00 0.00 0.00 54 1014.8
20260905072826 87 213 2.0 9.0 0.00 0.00 0.00 54 1014.9
20260905072320 87 215 5.0 7.0 0.00 0.00 0.00 54 1014.8
20260905071812 87 137 2.0 6.0 0.00 0.00 0.00 54 1015.0
20260905071308 86 129 2.0 3.0 0.00 0.00 0.00 55 1014.8
20260905070802 86 207 3.0 6.0 0.00 0.00 0.00 55 1014.8
20260905070258 86 160 1.0 3.0 0.00 0.00 0.00 55 1014.8
20260905065757 86 159 3.0 6.0 0.00 0.00 0.00 56 1015.0
20260905065250 85 171 1.0 6.0 0.00 0.00 0.00 57 1014.8
20260905064746 85 196 1.0 2.0 0.00 0.00 0.00 57 1015.0
20260905064241 85 166 2.0 2.0 0.00 0.00 0.00 57 1014.8
20260905063740 85 203 1.0 1.0 0.00 0.00 0.00 57 1015.0
20260905063236 86 212 1.0 2.0 0.00 0.00 0.00 56 1014.9
20260905062732 86 167 2.0 4.0 0.00 0.00 0.00 56 1015.0
20260905062231 86 138 2.0 3.0 0.00 0.00 0.00 56 1015.0
20260905061726 86 157 1.0 2.0 0.00 0.00 0.00 56 1015.1
20260905061220 86 154 0.0 1.0 0.00 0.00 0.00 56 1015.0
20260905060715 86 150 1.0 1.0 0.00 0.00 0.00 55 1015.0
20260905060212 86 137 0.0 3.0 0.00 0.00 0.00 55 1015.0
20260905055710 86 235 1.0 2.0 0.00 0.00 0.00 55 1014.9
20260905055205 86 131 1.0 2.0 0.00 0.00 0.00 54 1015.1
20260905054700 87 184 4.0 6.0 0.00 0.00 0.00 54 1015.1
20260905054156 87 151 1.0 7.0 0.00 0.00 0.00 54 1015.0
20260905053656 87 212 3.0 7.0 0.00 0.00 0.00 53 1015.1
20260905053151 87 192 1.0 3.0 0.00 0.00 0.00 53 1015.1
20260905052645 87 178 2.0 6.0 0.00 0.00 0.00 53 1015.2
20260905052140 87 188 1.0 3.0 0.00 0.00 0.00 53 1015.0
20260905051635 87 215 0.0 2.0 0.00 0.00 0.00 53 1015.2
20260905051132 87 160 0.0 2.0 0.00 0.00 0.00 53 1015.1
20260905050627 87 91 0.0 4.0 0.00 0.00 0.00 53 1015.0
20260905050119 88 201 2.0 3.0 0.00 0.00 0.00 53 1015.0
20260905045618 88 160 2.0 2.0 0.00 0.00 0.00 52 1015.1
20260905045114 88 187 1.0 3.0 0.00 0.00 0.00 52 1015.1
20260905044613 88 204 2.0 6.0 0.00 0.00 0.00 52 1015.0
20260905044108 88 170 2.0 6.0 0.00 0.00 0.00 52 1015.0
20260905043607 88 148 1.0 3.0 0.00 0.00 0.00 52 1015.0
20260905043103 88 107 1.0 2.0 0.00 0.00 0.00 52 1015.1
20260905042601 89 158 2.0 8.0 0.00 0.00 0.00 51 1015.2
20260905042057 89 163 3.0 3.0 0.00 0.00 0.00 51 1015.1
20260905041552 89 163 1.0 4.0 0.00 0.00 0.00 51 1014.9
20260905041047 89 149 2.0 7.0 0.00 0.00 0.00 51 1015.1
20260905040547 89 193 3.0 4.0 0.00 0.00 0.00 51 1015.0
20260905040046 89 168 1.0 7.0 0.00 0.00 0.00 51 1015.0
20260905035541 89 139 0.0 3.0 0.00 0.00 0.00 51 1014.9
20260905035038 90 87 0.0 2.0 0.00 0.00 0.00 50 1015.0
20260905034533 90 161 1.0 3.0 0.00 0.00 0.00 50 1014.8
20260905034033 90 139 0.0 3.0 0.00 0.00 0.00 50 1014.9
20260905033527 90 131 1.0 2.0 0.00 0.00 0.00 49 1015.0
20260905033023 90 186 3.0 4.0 0.00 0.00 0.00 49 1014.8
20260905032517 90 145 0.0 3.0 0.00 0.00 0.00 50 1014.9
20260905032013 90 118 0.0 7.0 0.00 0.00 0.00 49 1014.6
20260905031509 90 127 1.0 6.0 0.00 0.00 0.00 50 1014.4
20260905031003 90 153 0.0 2.0 0.00 0.00 0.00 50 1014.7
20260905030458 90 158 0.0 3.0 0.00 0.00 0.00 50 1014.3
20260905025957 90 171 0.0 2.0 0.00 0.00 0.00 50 1014.2
20260905025453 90 147 0.0 1.0 0.00 0.00 0.00 49 1014.3
20260905024949 90 193 1.0 1.0 0.00 0.00 0.00 49 1014.1
20260905024449 90 158 0.0 1.0 0.00 0.00 0.00 49 1014.1
20260905023945 90 127 0.0 1.0 0.00 0.00 0.00 49 1013.9
20260905023440 91 106 0.0 0.0 0.00 0.00 0.00 48 1013.9
20260905022939 91 112 0.0 1.0 0.00 0.00 0.00 48 1013.9
20260905022434 91 183 0.0 2.0 0.00 0.00 0.00 47 1013.8
20260905021929 91 26 1.0 1.0 0.00 0.00 0.00 47 1013.7
20260905021424 91 89 0.0 1.0 0.00 0.00 0.00 47 1013.5
20260905020919 92 53 1.0 2.0 0.00 0.00 0.00 47 1013.5
20260905020418 92 147 0.0 0.0 0.00 0.00 0.00 47 1013.4
20260905015918 92 258 0.0 1.0 0.00 0.00 0.00 46 1013.5
20260905015416 92 66 0.0 2.0 0.00 0.00 0.00 46 1013.4
20260905014916 92 120 0.0 0.0 0.00 0.00 0.00 46 1013.4
20260905014411 93 185 1.0 2.0 0.00 0.00 0.00 45 1013.1
20260905013907 93 116 0.0 3.0 0.00 0.00 0.00 45 1013.3
20260905013403 93 179 0.0 1.0 0.00 0.00 0.00 46 1013.2
20260905012858 93 147 1.0 1.0 0.00 0.00 0.00 45 1013.0
20260905012353 93 185 1.0 1.0 0.00 0.00 0.00 45 1012.9
20260905011850 93 113 0.0 1.0 0.00 0.00 0.00 45 1012.8
20260905011345 94 112 0.0 2.0 0.00 0.00 0.00 44 1012.9
20260905010840 94 87 1.0 1.0 0.00 0.00 0.00 44 1012.7
20260905010330 94 163 2.0 3.0 0.00 0.00 0.00 44 1012.8
20260905005826 95 127 1.0 3.0 0.00 0.00 0.00 43 1012.6
20260905005322 95 143 1.0 2.0 0.00 0.00 0.00 43 1012.7
20260905004816 95 72 0.0 0.0 0.00 0.00 0.00 43 1012.6
20260905004311 96 96 0.0 2.0 0.00 0.00 0.00 42 1012.5
20260905003806 96 181 1.0 3.0 0.00 0.00 0.00 42 1012.6
20260905003302 96 150 1.0 2.0 0.00 0.00 0.00 42 1012.5
20260905002758 96 24 1.0 3.0 0.00 0.00 0.00 42 1012.6
20260905002257 97 211 4.0 6.0 0.00 0.00 0.00 41 1012.7
20260905001752 97 66 2.0 3.0 0.00 0.00 0.00 41 1012.5
20260905001252 98 136 0.0 3.0 0.00 0.00 0.00 41 1012.6
20260905000747 98 184 1.0 4.0 0.00 0.00 0.00 40 1012.5
20260905000243 98 31 2.0 4.0 0.00 0.00 0.00 40 1012.6
20260904235738 98 107 2.0 4.0 0.00 0.00 0.00 40 1012.5
20260904235232 98 192 0.0 10.0 0.00 0.00 0.00 39 1012.5
20260904234727 100 169 7.0 9.0 0.00 0.00 0.00 39 1012.5
20260904234222 99 176 0.0 3.0 0.00 0.00 0.00 39 1012.5
20260904233718 99 50 2.0 3.0 0.00 0.00 0.00 38 1012.4
20260904233214 99 265 1.0 9.0 0.00 0.00 0.00 39 1012.6
20260904232711 100 184 3.0 8.0 0.00 0.00 0.00 38 1012.5
20260904232207 100 153 2.0 8.0 0.00 0.00 0.00 38 1012.4
20260904231701 100 89 1.0 2.0 0.00 0.00 0.00 37 1012.4
20260904231156 100 52 2.0 3.0 0.00 0.00 0.00 38 1012.4
20260904230651 100 74 1.0 2.0 0.00 0.00 0.00 38 1012.5
20260904230146 100 8 2.0 10.0 0.00 0.00 0.00 38 1012.3
20260904225644 99 212 1.0 7.0 0.00 0.00 0.00 39 1012.4
20260904225139 99 164 1.0 4.0 0.00 0.00 0.00 39 1012.4
20260904224633 100 177 2.0 6.0 0.00 0.00 0.00 38 1012.3
20260904224128 100 197 1.0 3.0 0.00 0.00 0.00 38 1012.3
20260904223627 100 199 4.0 4.0 0.00 0.00 0.00 38 1012.5
20260904223123 100 208 4.0 8.0 0.00 0.00 0.00 39 1012.2
20260904222619 101 86 1.0 2.0 0.00 0.00 0.00 37 1012.4
20260904222114 101 143 1.0 3.0 0.00 0.00 0.00 38 1012.4
20260904221613 101 202 1.0 2.0 0.00 0.00 0.00 37 1012.5
20260904221113 101 181 2.0 8.0 0.00 0.00 0.00 39 1012.4
20260904220608 99 201 5.0 11.0 0.00 0.00 0.00 40 1012.4
20260904215558 100 344 2.0 4.0 0.00 0.00 0.00 39 1012.5
20260904215053 101 175 1.0 2.0 0.00 0.00 0.00 38 1012.4
20260904214543 100 262 4.0 10.0 0.00 0.00 0.00 39 1012.4
20260904214039 101 188 3.0 6.0 0.00 0.00 0.00 38 1012.6
20260904213536 102 168 1.0 4.0 0.00 0.00 0.00 37 1012.7
20260904213034 103 191 5.0 6.0 0.00 0.00 0.00 36 1012.6
20260904212532 102 348 2.0 6.0 0.00 0.00 0.00 37 1012.7
20260904212028 101 205 3.0 7.0 0.00 0.00 0.00 38 1012.7
20260904211522 102 158 4.0 7.0 0.00 0.00 0.00 37 1012.8
20260904211018 103 138 2.0 7.0 0.00 0.00 0.00 37 1012.8
20260904210517 103 153 1.0 3.0 0.00 0.00 0.00 35 1012.7
20260904210013 104 189 4.0 9.0 0.00 0.00 0.00 35 1012.7
20260904205508 103 191 4.0 6.0 0.00 0.00 0.00 36 1012.8
20260904205005 101 214 3.0 8.0 0.00 0.00 0.00 36 1012.9
20260904204500 101 244 6.0 9.0 0.00 0.00 0.00 37 1013.1
20260904203956 102 199 7.0 9.0 0.00 0.00 0.00 37 1013.1
20260904203452 101 121 3.0 6.0 0.00 0.00 0.00 36 1013.2
20260904202948 102 215 4.0 13.0 0.00 0.00 0.00 36 1013.1
20260904202444 102 194 3.0 6.0 0.00 0.00 0.00 35 1013.2
20260904201940 102 96 2.0 7.0 0.00 0.00 0.00 36 1013.3
20260904201435 102 163 6.0 9.0 0.00 0.00 0.00 35 1013.5
20260904200931 102 205 4.0 10.0 0.00 0.00 0.00 35 1013.2
20260904200429 103 162 4.0 8.0 0.00 0.00 0.00 36 1013.5
20260904195924 101 7 0.0 4.0 0.00 0.00 0.00 35 1013.4
20260904195422 100 209 10.0 11.0 0.00 0.00 0.00 37 1013.6
20260904194921 100 220 5.0 9.0 0.00 0.00 0.00 37 1013.5
20260904194421 102 194 8.0 11.0 0.00 0.00 0.00 36 1013.7
20260904193917 101 173 3.0 7.0 0.00 0.00 0.00 37 1013.6
20260904193412 102 206 4.0 10.0 0.00 0.00 0.00 37 1013.5
20260904192907 101 103 2.0 8.0 0.00 0.00 0.00 37 1013.6
20260904192403 101 214 3.0 8.0 0.00 0.00 0.00 37 1013.8
20260904191859 100 177 6.0 10.0 0.00 0.00 0.00 38 1013.8
20260904191355 101 239 5.0 8.0 0.00 0.00 0.00 37 1013.8
20260904190852 100 217 4.0 9.0 0.00 0.00 0.00 38 1013.9
20260904190347 99 201 4.0 9.0 0.00 0.00 0.00 40 1013.9
20260904185843 99 174 6.0 13.0 0.00 0.00 0.00 39 1014.2
20260904185338 98 196 4.0 10.0 0.00 0.00 0.00 40 1014.1
20260904184838 99 183 11.0 16.0 0.00 0.00 0.00 40 1014.0
20260904184333 99 178 6.0 11.0 0.00 0.00 0.00 40 1014.1
20260904183828 100 251 1.0 8.0 0.00 0.00 0.00 39 1014.0
20260904183329 100 54 2.0 4.0 0.00 0.00 0.00 39 1014.2
20260904182824 99 318 2.0 4.0 0.00 0.00 0.00 40 1014.2
20260904182319 98 18 3.0 11.0 0.00 0.00 0.00 41 1014.6
20260904181815 96 41 1.0 9.0 0.00 0.00 0.00 44 1014.3
20260904181314 98 182 9.0 15.0 0.00 0.00 0.00 44 1014.6
20260904180809 97 120 4.0 9.0 0.00 0.00 0.00 44 1014.6
20260904180305 95 220 3.0 7.0 0.00 0.00 0.00 45 1014.7
20260904175804 95 217 4.0 8.0 0.00 0.00 0.00 46 1014.7
20260904175305 96 196 9.0 11.0 0.00 0.00 0.00 46 1014.8
20260904174758 95 205 5.0 9.0 0.00 0.00 0.00 47 1014.8
20260904174254 94 186 7.0 8.0 0.00 0.00 0.00 48 1014.9
20260904173749 96 194 7.0 9.0 0.00 0.00 0.00 47 1015.0
20260904173244 96 196 2.0 10.0 0.00 0.00 0.00 47 1015.0
20260904172741 94 175 3.0 8.0 0.00 0.00 0.00 48 1015.2
20260904172239 93 194 5.0 11.0 0.00 0.00 0.00 49 1015.2
20260904171734 94 214 5.0 8.0 0.00 0.00 0.00 48 1015.1
20260904171229 94 164 8.0 10.0 0.00 0.00 0.00 49 1015.4
20260904170725 94 204 4.0 7.0 0.00 0.00 0.00 49 1015.4
20260904170221 93 226 3.0 7.0 0.00 0.00 0.00 50 1015.5
20260904165720 93 200 5.0 14.0 0.00 0.00 0.00 50 1015.5
20260904165215 93 181 0.0 10.0 0.00 0.00 0.00 50 1015.5
20260904164709 93 159 2.0 6.0 0.00 0.00 0.00 51 1015.4
20260904164204 94 18 1.0 6.0 0.00 0.00 0.00 49 1015.4
20260904163700 94 125 2.0 7.0 0.00 0.00 0.00 50 1015.5
20260904163155 92 66 2.0 6.0 0.00 0.00 0.00 52 1015.6
20260904162654 91 152 4.0 9.0 0.00 0.00 0.00 53 1015.5
20260904162149 92 81 3.0 9.0 0.00 0.00 0.00 54 1015.4
20260904161645 90 165 3.0 11.0 0.00 0.00 0.00 55 1015.5
20260904161140 91 144 1.0 8.0 0.00 0.00 0.00 55 1015.5
20260904160636 90 24 1.0 4.0 0.00 0.00 0.00 56 1015.4
20260904160131 90 155 4.0 6.0 0.00 0.00 0.00 56 1015.4
20260904155626 91 174 4.0 7.0 0.00 0.00 0.00 56 1015.5
20260904155119 89 196 1.0 10.0 0.00 0.00 0.00 57 1015.3
20260904154614 89 78 4.0 8.0 0.00 0.00 0.00 58 1015.3
20260904154113 89 182 6.0 10.0 0.00 0.00 0.00 58 1015.0
20260904153608 87 177 6.0 9.0 0.00 0.00 0.00 61 1015.2
20260904153104 87 168 3.0 13.0 0.00 0.00 0.00 60 1015.3
20260904152600 88 183 2.0 6.0 0.00 0.00 0.00 60 1015.5
20260904152055 86 89 1.0 9.0 0.00 0.00 0.00 62 1015.3
20260904151550 86 180 2.0 4.0 0.00 0.00 0.00 63 1015.3
20260904151049 85 203 5.0 9.0 0.00 0.00 0.00 64 1015.4
20260904150544 85 209 7.0 11.0 0.00 0.00 0.00 65 1015.3
20260904150039 85 172 4.0 10.0 0.00 0.00 0.00 65 1015.3
20260904145538 84 166 5.0 8.0 0.00 0.00 0.00 66 1015.3
20260904145033 84 179 7.0 11.0 0.00 0.00 0.00 66 1015.2
20260904144530 84 139 3.0 7.0 0.00 0.00 0.00 67 1015.5
20260904144026 84 169 4.0 7.0 0.00 0.00 0.00 67 1015.3
20260904143521 83 196 6.0 9.0 0.00 0.00 0.00 69 1015.2
20260904143018 83 172 2.0 11.0 0.00 0.00 0.00 69 1015.4
20260904142513 82 192 2.0 6.0 0.00 0.00 0.00 70 1015.2
20260904142013 82 173 1.0 6.0 0.00 0.00 0.00 70 1015.3
20260904141509 82 195 6.0 8.0 0.00 0.00 0.00 70 1015.4
20260904141004 81 166 2.0 6.0 0.00 0.00 0.00 71 1015.3
20260904140459 81 219 5.0 7.0 0.00 0.00 0.00 72 1015.2
20260904135957 81 190 3.0 3.0 0.00 0.00 0.00 71 1015.3
20260904135452 80 190 4.0 6.0 0.00 0.00 0.00 72 1015.4
20260904134948 80 346 2.0 13.0 0.00 0.00 0.00 73 1015.5
20260904134443 81 137 1.0 3.0 0.00 0.00 0.00 71 1015.5
20260904133937 80 196 3.0 6.0 0.00 0.00 0.00 72 1015.5
20260904133432 80 134 0.0 4.0 0.00 0.00 0.00 73 1015.3
20260904132928 80 172 1.0 2.0 0.00 0.00 0.00 72 1015.2
20260904132423 79 73 1.0 3.0 0.00 0.00 0.00 73 1015.2
20260904131922 79 181 4.0 6.0 0.00 0.00 0.00 74 1015.3
20260904131418 79 177 2.0 3.0 0.00 0.00 0.00 75 1015.4
20260904130914 78 170 3.0 8.0 0.00 0.00 0.00 75 1015.3
20260904130412 78 233 1.0 7.0 0.00 0.00 0.00 75 1015.2
20260904125907 78 218 2.0 3.0 0.00 0.00 0.00 76 1015.1
20260904125404 78 105 2.0 2.0 0.00 0.00 0.00 76 1015.0
20260904124903 78 198 0.0 2.0 0.00 0.00 0.00 76 1015.2
20260904124400 77 63 0.0 2.0 0.00 0.00 0.00 77 1014.9
20260904123855 77 48 0.0 2.0 0.00 0.00 0.00 78 1015.0
20260904123350 77 148 0.0 1.0 0.00 0.00 0.00 78 1014.9
20260904122845 77 142 0.0 2.0 0.00 0.00 0.00 78 1014.6
20260904122344 77 158 3.0 4.0 0.00 0.00 0.00 79 1014.8
20260904121839 77 166 0.0 2.0 0.00 0.00 0.00 79 1014.7
20260904121336 77 136 0.0 3.0 0.00 0.00 0.00 79 1014.8
20260904120832 77 146 1.0 3.0 0.00 0.00 0.00 79 1014.6
20260904120327 77 178 2.0 3.0 0.00 0.00 0.00 78 1014.6
20260904115822 77 130 0.0 3.0 0.00 0.00 0.00 78 1014.4
20260904115318 77 146 0.0 3.0 0.00 0.00 0.00 78 1014.6
20260904114818 77 201 1.0 2.0 0.00 0.00 0.00 79 1014.7
20260904114312 77 107 0.0 2.0 0.00 0.00 0.00 79 1014.4
20260904113808 77 163 0.0 0.0 0.00 0.00 0.00 79 1014.3
20260904113307 77 11 1.0 4.0 0.00 0.00 0.00 78 1014.4
20260904112801 77 186 0.0 2.0 0.00 0.00 0.00 78 1014.4
20260904112257 77 135 1.0 2.0 0.00 0.00 0.00 78 1014.4
20260904111753 77 214 3.0 7.0 0.00 0.00 0.00 78 1014.4
20260904111248 77 95 0.0 1.0 0.00 0.00 0.00 78 1014.3
20260904110744 77 75 0.0 1.0 0.00 0.00 0.00 78 1014.6
20260904110243 77 163 0.0 7.0 0.00 0.00 0.00 78 1014.4
20260904105738 77 143 1.0 2.0 0.00 0.00 0.00 78 1014.3
20260904105233 77 112 0.0 0.0 0.00 0.00 0.00 77 1014.3
20260904104728 77 143 0.0 2.0 0.00 0.00 0.00 77 1014.3
20260904104223 78 135 0.0 0.0 0.00 0.00 0.00 76 1014.4
20260904103721 78 129 0.0 2.0 0.00 0.00 0.00 76 1014.4
20260904103215 78 149 0.0 1.0 0.00 0.00 0.00 76 1014.4
20260904102710 78 106 1.0 1.0 0.00 0.00 0.00 76 1014.4
20260904102205 78 137 0.0 1.0 0.00 0.00 0.00 76 1014.4
20260904101657 78 91 0.0 1.0 0.00 0.00 0.00 75 1014.6
20260904101152 79 134 0.0 1.0 0.00 0.00 0.00 74 1014.4
20260904100648 79 135 1.0 2.0 0.00 0.00 0.00 72 1014.3
20260904100143 79 80 1.0 2.0 0.00 0.00 0.00 72 1014.3
20260904095643 79 110 0.0 2.0 0.00 0.00 0.00 71 1014.3
20260904095137 80 348 0.0 1.0 0.00 0.00 0.00 70 1014.4
20260904094632 80 170 5.0 7.0 0.00 0.00 0.00 69 1014.3
20260904094127 80 197 8.0 11.0 0.00 0.00 0.00 69 1014.3
20260904093624 80 178 4.0 7.0 0.00 0.00 0.00 70 1014.4
20260904093124 80 225 1.0 3.0 0.00 0.00 0.00 70 1014.2
20260904092620 80 194 5.0 7.0 0.00 0.00 0.00 70 1014.1
20260904092116 80 186 7.0 9.0 0.00 0.00 0.00 70 1014.2
20260904091612 80 174 2.0 4.0 0.00 0.00 0.00 70 1014.2
20260904091111 80 135 2.0 7.0 0.00 0.00 0.00 69 1014.2
20260904090607 80 190 4.0 10.0 0.00 0.00 0.00 69 1014.0
20260904085603 80 243 1.0 7.0 0.00 0.00 0.00 69 1014.3
20260904085057 80 104 1.0 6.0 0.00 0.00 0.00 70 1014.2
20260904084553 80 182 5.0 6.0 0.00 0.00 0.00 71 1014.2
20260904084049 80 226 5.0 8.0 0.00 0.00 0.00 71 1014.3
20260904083545 80 105 0.0 3.0 0.00 0.00 0.00 74 1014.2
20260904083040 80 203 2.0 3.0 0.00 0.00 0.00 73 1014.0
20260904082535 80 189 4.0 4.0 0.00 0.00 0.00 74 1014.1
20260904082036 80 154 0.0 1.0 0.00 0.00 0.00 74 1014.0